SCP
0 0 0 -0 0 0 0 0 0 0 0 0 0 0 0 0 0 0 0 0 0 0 0 0 0 0 0 0 0 0 0 0 0 0 0 0 0 0 0 0 0 0 0 0 0 0 0 0 0
0 0 0 -0 0 0 0 0 0 0 0 0 0 0 0 0 0 0 0 0 0 0 0 0 0 0 0 0 0 0 0 0 0 0 0 0 0 0 0 0 0 0 0 0 0 0 0 0 0
0 0 -0 0 0 0 0 0 0 0 0 0 0 0 0 0 0 0 0 0 0 0 0 0 0 0 0 0 0 0 0 0 0 0 0 0 0 0 0 0 0 0 0 0 0 0 0 0 0
0 0 -0 0 0 0 0 0 0 0 0 0 0 0 0 0 0 0 0 0 0 0 0 0 0 0 0 0 0 0 0 0 0 0 0 0 0 0 0 0 0 0 0 0 0 0 0 0 0
-0 0 0 0 0 0 0 0 0 0 0 0 0 0 0 0 0 0 0 0 0 0 0 0 0 0 0 0 0 0 0 0 0 0 0 0 0 0 0 0 0 0 0 0 0 0 0 0 0
-0 0 0 0 0 0 0 0 0 0 0 0 0 0 0 0 0 0 0 0 0 0 0 0 0 0 0 0 0 0 0 0 0 0 0 0 0 0 0 0 0 0 0 0 0 0 0 0 0
0 0 0 0 0 0 0 0 0 0 0 0 0 0 0 0 0 0 0 0 0 0 0 0 0 0 0 0 0 0 0 0 0 0 0 0 0 0 0 0 0 0 0 0 0 0 0 0 0
0 0 0 0 0 0 0 0 0 0 0 0 0 0 0 0 0 0 0 0 0 0 0 0 0 0 0 0 0 0 0 0 0 0 0 0 0 0 0 0 0 0 0 0 0 0 0 0 0
0 0 0 0 0 0 0 0 0 0 0 0 0 0 0 0 0 0 0 0 0 0 0 0 0 0 0 0 0 0 0 0 0 0 0 0 0 0 0 0 0 0 0 0 0 0 0 0 0
0 0 0 0 0 0 0 0 0 0 0 0 0 0 0 0 0 0 0 0 0 0 0 0 0 0 0 0 0 0 0 0 0 0 0 0 0 0 0 0 0 0 0 0 0 0 0 0 0
0 0 0 0 0 0 0 0 0 0 0 0 0 0 0 0 0 0 0 0 0 0 0 0 0 0 0 0 0 0 0 0 0 0 0 0 0 0 0 0 0 0 0 0 0 0 0 0 0
0 0 0 0 0 0 0 0 0 0 0 0 0 0 0 0 0 0 0 0 0 0 0 0 0 0 0 0 0 0 0 0 0 0 0 0 0 0 0 0 0 0 0 0 0 0 0 0 0
0 0 0 0 0 0 0 0 0 0 0 0 0 0 0 0 0 0 0 0 0 0 0 0 0 0 0 0 0 0 0 0 0 0 0 0 0 0 0 0 0 0 0 0 0 0 0 0 0
0 0 0 0 0 0 0 0 0 0 0 0 0 0 0 0 0 0 0 0 0 0 0 0 0 0 0 0 0 0 0 0 0 0 0 0 0 0 0 0 0 0 0 0 0 0 0 0 0
0 0 0 0 0 0 0 0 0 0 0 0 0 0 0 0 0 0 0 0 0 0 0 0 0 0 0 0 0 0 0 0 0 0 0 0 0 0 0 0 0 0 0 0 0 0 0 0 0
0 0 0 0 0 0 0 0 0 0 0 0 0 0 0 0 0 0 0 0 0 0 0 0 0 0 0 0 0 0 0 0 0 0 0 0 0 0 0 0 0 0 0 0 0 0 0 0 0
0 0 0 0 0 0 0 0 0 0 0 0 0 0 0 0 0 0 0 0 0 0 0 0 0 0 0 0 0 0 0 0 0 0 0 0 0 0 0 0 0 0 0 0 0 0 0 0 0
0 0 0 0 0 0 0 0 0 0 0 0 0 0 0 0 0 0 0 0 0 0 0 0 0 0 0 0 0 0 0 0 0 0 0 0 0 0 0 0 0 0 0 0 0 0 0 0 0
0 0 0 0 0 0 0 0 0 0 0 0 0 0 0 0 0 0 0 0 0 0 0 0 0 0 0 0 0 0 0 0 0 0 0 0 0 0 0 0 0 0 0 0 0 0 0 0 0
0 0 0 0 0 0 0 0 0 0 0 0 0 0 0 0 0 0 0 0 0 0 0 0 0 0 0 0 0 0 0 0 0 0 0 0 0 0 0 0 0 0 0 0 0 0 0 0 0
0 0 0 0 0 0 0 0 0 0 0 0 0 0 0 0 0 0 0 0 0 0 0 0 0 0 0 0 0 0 0 0 0 0 0 0 0 0 0 0 0 0 0 0 0 0 0 0 0
0 0 0 0 0 0 0 0 0 0 0 0 0 0 0 0 0 0 0 0 0 0 0 0 0 0 0 0 0 0 0 0 0 0 0 0 0 0 0 0 0 0 0 0 0 0 0 0 0
0 0 0 0 0 0 0 0 0 0 0 0 0 0 0 0 0 0 0 0 0 0 0 0 0 0 0 0 0 0 0 0 0 0 0 0 0 0 0 0 0 0 0 0 0 0 0 0 0
0 0 0 0 0 0 0 0 0 0 0 0 0 0 0 0 0 0 0 0 0 0 0 0 0 0 0 0 0 0 0 0 0 0 0 0 0 0 0 0 0 0 0 0 0 0 0 0 0
0 0 0 0 0 0 0 0 0 0 0 0 0 0 0 0 0 0 0 0 0 0 0 0 0 0 0 0 0 0 0 0 0 0 0 0 0 0 0 0 0 0 0 0 0 0 0 0 0
0 0 0 0 0 0 0 0 0 0 0 0 0 0 0 0 0 0 0 0 0 0 0 0 0 0 0 0 0 0 0 0 0 0 0 0 0 0 0 0 0 0 0 0 0 0 0 0 0
0 0 0 0 0 0 0 0 0 0 0 0 0 0 0 0 0 0 0 0 0 0 0 0 0 0 0 0 0 0 0 0 0 0 0 0 0 0 0 0 0 0 0 0 0 0 0 0 0
0 0 0 0 0 0 0 0 0 0 0 0 0 0 0 0 0 0 0 0 0 0 0 0 0 0 0 0 0 0 0 0 0 0 0 0 0 0 0 0 0 0 0 0 0 0 0 0 0
0 0 0 0 0 0 0 0 0 0 0 0 0 0 0 0 0 0 0 0 0 0 0 0 0 0 0 0 0 0 0 0 0 0 0 0 0 0 0 0 0 0 0 0 0 0 0 0 0
0 0 0 0 0 0 0 0 0 0 0 0 0 0 0 0 0 0 0 0 0 0 0 0 0 0 0 0 0 0 0 0 0 0 0 0 0 0 0 0 0 0 0 0 0 0 0 0 0
Wind_Speed
3 5 3 4 7 7 2 2 4 4 2 3 4 8 7 5 4 5 4 7 8 6 4 3 7 8 9 10 11 12 13 14 15 15 16 17 17 18 18 19 20 20 21 22 22 23 23 24 24
2 3 5 5 6 3 3 3 5 3 7 7 5 6 5 3 2 7 5 7 9 7 3 1 7 8 9 10 11 11 12 13 14 15 16 16 17 18 18 19 20 20 21 21 22 22 23 23 24
1 3 5 5 4 5 6 4 5 4 5 5 4 4 4 6 6 7 6 9 9 6 3 1 8 8 8 9 10 11 12 12 13 15 15 16 17 17 18 19 19 20 20 21 21 22 23 23 24
4 5 6 6 2 1 3 5 6 7 3 5 5 4 2 2 7 7 8 10 9 6 3 2 8 7 8 8 9 10 11 12 13 14 15 16 17 17 18 18 19 20 20 21 21 22 23 23 24
4 5 6 4 1 2 1 6 7 6 5 4 6 5 2 1 5 9 10 10 9 6 3 1 7 6 6 7 8 9 10 11 12 14 15 16 17 17 17 18 19 20 20 21 21 22 23 23 24
5 5 5 3 2 1 2 4 5 5 5 5 7 7 4 3 7 9 10 9 9 7 4 2 6 6 5 6 7 8 9 10 12 13 15 16 17 17 17 19 19 20 20 21 21 22 23 23 23
5 5 4 6 5 4 6 5 8 6 6 8 10 8 3 5 7 9 9 8 8 7 6 4 4 4 5 5 6 7 8 10 11 13 14 15 17 17 18 19 19 20 21 21 22 22 23 24 24
5 6 5 5 6 6 7 5 5 7 5 6 9 10 8 10 8 8 8 7 7 6 6 5 4 4 3 3 5 6 7 9 10 11 12 14 15 15 17 18 19 20 20 21 21 23 23 23 24
4 6 4 8 8 7 7 5 2 2 6 4 3 6 8 14 12 10 6 5 6 6 5 5 4 3 2 1 4 5 5 7 8 7 10 9 5 5 8 15 18 19 19 20 21 22 22 22 21
5 4 6 4 5 7 7 7 8 5 4 3 1 1 8 16 15 13 10 9 8 8 6 5 5 4 2 1 2 1 2 2 2 2 3 3 3 5 9 14 17 18 17 18 19 20 19 15 8
4 4 2 1 1 7 7 6 6 9 7 10 9 9 14 15 14 14 12 10 9 9 8 7 6 5 4 2 1 0 0 0 1 2 2 2 3 3 4 3 6 7 10 6 10 10 6 6 6
5 2 1 1 1 5 8 8 5 9 10 7 11 17 18 17 18 17 14 11 9 8 8 7 7 6 4 3 1 2 1 1 0 1 2 2 2 2 3 2 3 3 3 4 4 3 5 6 6
3 1 1 2 3 5 6 5 5 8 6 4 12 16 18 18 16 12 10 11 10 10 9 8 8 7 5 3 2 2 2 2 1 1 1 2 2 1 1 2 2 3 3 3 4 4 5 6 6
3 3 2 2 3 2 4 4 5 9 6 9 14 17 17 18 16 12 11 13 13 12 11 8 8 7 6 4 3 2 2 2 2 2 2 3 2 1 1 2 3 3 3 3 4 5 5 5 5
4 4 2 1 0 0 1 6 10 5 9 11 14 15 16 15 15 14 13 13 14 13 11 10 9 8 7 5 4 3 2 2 2 2 3 3 3 2 2 2 3 3 3 4 4 5 4 5 6
3 2 3 4 4 2 4 10 9 7 11 12 12 12 14 15 15 13 12 12 13 13 12 11 10 9 7 5 4 2 2 2 2 2 3 4 4 3 3 3 3 4 3 3 4 3 4 5 6
1 2 4 3 6 5 6 12 6 6 11 13 13 13 14 13 14 13 13 13 14 15 14 12 9 10 8 6 4 3 2 2 2 2 3 4 4 4 3 3 4 4 3 3 5 4 4 6 7
4 4 5 6 5 6 7 14 12 6 11 12 12 12 14 17 19 13 13 13 14 14 13 12 10 9 8 5 3 2 1 2 2 3 4 5 4 4 4 3 4 4 3 3 4 5 5 5 6
3 4 5 5 4 7 11 17 17 8 11 12 12 13 16 20 15 11 13 13 13 13 13 13 11 10 7 4 3 2 3 3 3 3 5 5 5 5 4 4 4 3 3 4 5 4 6 5 4
3 3 4 3 3 6 7 14 15 9 11 13 16 17 18 16 12 12 13 14 16 17 16 15 14 12 10 6 4 3 3 3 3 3 3 5 5 5 4 4 4 4 3 5 5 5 4 5 4
3 3 3 2 2 3 5 12 8 4 5 7 10 12 13 17 18 15 16 17 17 18 19 16 15 13 11 8 4 3 2 1 2 3 3 4 4 4 4 5 4 4 4 4 5 5 5 6 5
4 1 0 1 2 5 1 7 10 5 5 8 12 12 15 16 16 16 17 18 20 20 16 15 15 13 11 10 7 7 5 5 5 3 3 4 4 5 5 5 5 5 4 5 6 6 5 5 7
3 1 0 1 0 4 3 4 13 3 7 11 12 15 17 16 16 17 19 20 19 16 15 14 14 13 12 11 10 8 6 5 3 3 4 4 4 5 5 5 5 5 5 6 6 6 6 5 6
2 4 3 4 4 4 6 6 11 7 10 9 9 11 15 15 15 15 13 13 13 12 13 13 14 14 13 12 11 10 9 7 6 5 5 4 3 4 5 5 5 5 5 6 7 7 7 7 7
3 4 3 4 2 8 3 5 14 11 10 10 10 11 12 12 12 12 12 14 15 16 16 15 16 14 13 13 12 11 10 9 9 7 6 5 4 4 6 6 5 5 6 7 7 7 7 7 8
4 6 5 4 5 7 4 9 13 8 8 8 8 8 7 9 10 12 14 15 16 18 17 17 18 15 14 14 12 10 9 7 6 7 6 6 5 5 6 6 6 7 7 8 6 6 7 7 7
4 5 6 4 3 5 8 10 14 6 5 6 7 7 9 10 10 12 11 13 15 17 19 19 18 15 15 14 12 10 9 8 8 7 6 5 5 5 6 6 7 7 7 8 7 6 8 8 8
2 4 5 3 3 6 9 8 9 7 9 9 9 11 13 10 9 10 10 13 14 15 15 14 16 16 13 13 12 10 9 9 8 6 7 7 7 6 6 6 7 7 8 8 7 7 8 9 9
5 4 5 4 4 5 6 12 9 9 9 11 14 13 13 12 12 12 11 11 10 10 12 14 14 13 12 13 11 9 9 8 8 7 7 7 6 6 7 7 7 7 8 8 7 9 9 10 11
7 7 8 5 6 6 5 15 9 9 9 9 11 10 10 10 10 9 9 9 10 13 13 15 15 14 14 12 11 10 9 8 8 8 7 7 7 6 7 7 7 8 8 8 8 10 11 10 12
Wind_Direction
87 97 75 58 56 56 109 154 146 123 84 63 80 92 100 109 148 160 154 137 127 109 74 42 85 76 67 60 53 47 43 40 37 33 30 28 27 26 24 22 19 16 15 13 11 9 7 6 4
100 106 57 61 83 104 218 167 147 155 145 135 94 89 87 89 95 122 154 144 123 114 93 90 95 81 71 62 55 48 43 40 37 33 29 27 26 24 23 20 18 15 14 12 10 8 7 6 3
70 91 83 74 98 176 202 176 156 128 129 117 82 66 107 147 145 161 163 140 118 114 101 117 102 88 74 63 56 48 42 39 36 32 28 27 24 23 22 19 16 14 12 11 9 8 7 5 4
69 55 55 70 96 307 193 171 153 128 99 79 103 91 82 144 169 165 143 131 122 127 126 134 108 95 81 67 56 49 42 37 35 32 28 26 23 21 22 16 14 12 12 10 9 9 8 7 6
66 81 67 63 39 359 98 146 140 129 136 109 117 128 140 339 135 132 137 136 136 149 162 148 113 98 84 69 57 49 42 36 34 31 29 26 21 18 20 14 12 12 11 11 10 9 8 8 6
61 71 89 154 147 92 167 171 139 125 133 129 129 142 190 172 141 145 145 144 145 151 145 82 105 95 80 66 58 49 42 36 34 30 28 26 20 16 18 12 11 12 10 11 9 9 9 7 5
97 95 135 162 158 185 201 173 154 150 158 178 152 139 192 211 184 153 145 144 145 143 132 109 80 64 57 49 52 47 42 36 34 28 26 25 19 14 16 10 9 10 9 9 7 7 8 6 4
116 102 108 161 171 208 183 155 167 157 175 149 142 152 197 203 183 148 142 143 143 140 139 135 118 100 68 18 36 43 40 34 33 24 23 26 20 14 14 7 7 9 8 7 5 5 5 3 360
84 83 168 195 188 200 177 146 118 129 129 131 182 193 196 158 156 144 145 151 156 152 152 148 137 121 98 86 56 39 34 31 38 25 24 33 18 2 16 3 7 7 6 5 2 1 1 0 354
67 141 198 198 204 179 176 156 155 140 154 171 150 29 135 149 163 167 172 174 174 172 173 164 152 144 128 95 75 39 48 45 55 60 49 45 28 11 23 7 7 5 3 2 358 356 356 353 342
72 155 170 340 174 152 147 150 157 146 201 210 193 172 155 163 174 181 183 180 180 177 175 170 162 155 150 152 166 125 91 68 48 57 67 59 45 24 18 9 1 355 357 352 347 345 337 329 328
85 43 106 1 99 140 154 158 185 196 214 210 179 163 165 176 185 190 189 184 175 176 179 174 165 160 166 171 185 182 180 181 159 93 88 80 54 24 3 355 338 336 330 323 321 314 314 313 313
103 129 16 30 85 128 140 175 214 234 230 151 148 162 177 186 192 196 191 180 175 180 179 175 167 167 170 174 205 178 196 195 184 156 118 110 92 24 343 321 316 310 305 306 307 308 309 311 310
120 97 54 32 51 97 154 220 253 247 159 144 161 179 188 193 193 193 189 184 183 182 179 174 171 170 167 172 193 207 209 203 180 177 170 147 152 195 273 292 296 294 292 291 294 297 301 299 300
95 81 357 293 291 225 96 267 238 226 149 167 183 190 196 201 199 200 194 186 185 182 176 175 174 170 169 178 197 199 206 197 193 196 189 184 189 209 233 264 280 281 285 293 296 296 297 308 313
94 65 297 242 197 170 155 259 254 179 166 188 197 200 205 209 209 206 195 185 182 178 177 180 176 169 172 177 189 197 202 199 206 206 204 207 214 218 228 252 268 275 285 293 297 294 309 308 305
6 279 268 260 194 171 192 250 271 174 185 201 204 206 210 214 218 212 199 189 183 180 178 180 172 169 174 175 177 185 193 205 214 216 218 223 227 230 230 247 262 274 283 289 305 321 302 304 307
232 229 252 253 209 175 218 255 266 200 208 215 211 211 214 218 219 209 201 191 184 182 180 178 174 172 167 161 160 169 201 224 228 228 229 229 230 238 240 252 264 273 281 286 289 296 295 291 297
220 233 261 263 187 185 234 258 269 219 216 229 222 218 221 226 222 206 199 189 182 182 182 181 178 176 164 157 166 180 213 226 243 239 230 228 232 242 246 266 271 272 272 277 287 292 297 294 295
237 268 273 281 191 203 265 273 270 223 210 219 220 221 224 228 221 211 199 191 190 189 188 186 185 180 178 173 165 171 178 208 222 234 234 232 237 245 257 254 260 267 273 284 290 293 287 293 311
263 244 254 280 347 263 308 300 286 256 222 232 228 224 225 223 222 213 204 199 197 196 192 190 188 183 181 170 151 150 146 234 242 233 234 240 245 251 256 260 260 263 258 269 280 282 278 293 297
256 217 202 318 355 297 238 295 290 272 266 248 238 230 231 228 224 216 209 204 203 202 193 190 184 182 179 171 169 170 184 202 216 214 225 247 251 254 255 259 261 261 257 263 275 290 276 282 296
218 155 113 62 116 309 253 228 280 285 267 258 242 232 233 229 222 219 212 209 206 197 190 187 182 183 179 178 178 178 194 205 214 224 241 249 252 252 256 258 259 258 256 261 267 276 272 267 275
115 59 52 48 63 288 228 187 273 236 221 242 244 232 231 229 223 223 216 204 198 188 186 184 184 186 182 182 182 185 194 201 212 225 236 243 245 251 255 258 253 253 256 260 264 263 266 265 266
94 81 3 331 333 257 231 211 251 244 223 219 225 231 230 224 218 216 206 199 195 188 189 187 187 189 186 186 189 192 195 197 208 217 225 232 238 243 251 256 252 254 254 259 261 261 263 264 265
182 149 172 233 251 286 287 238 254 255 248 235 238 243 241 228 217 215 210 202 196 192 189 189 192 191 188 191 195 194 193 195 206 212 213 221 228 238 245 247 248 252 256 266 263 264 264 266 263
186 201 178 159 267 273 271 278 294 264 261 237 236 245 246 237 226 220 211 201 196 193 193 192 192 191 191 193 192 194 195 197 205 211 215 222 230 242 244 244 249 254 257 260 262 262 264 266 267
200 149 111 149 236 271 284 270 256 272 251 244 241 240 246 245 240 230 215 205 200 197 193 191 192 193 190 190 192 197 197 200 203 206 217 225 234 241 249 252 253 257 260 262 262 263 265 267 270
169 188 178 178 188 198 269 269 231 238 239 232 234 235 239 238 234 229 219 207 195 187 188 192 194 192 191 192 193 193 193 196 200 209 219 225 233 238 244 249 255 259 262 262 261 264 269 269 273
186 195 164 181 233 207 229 267 257 246 258 244 246 246 245 243 239 230 214 193 190 193 194 196 196 196 196 192 190 195 192 193 202 214 221 224 233 238 242 250 257 262 266 262 261 268 276 271 275